Regional Weather Roundup
Issued by NWS

Home | Current Version | Previous Version | Text Only | Print | Product List | Glossary Off
Versions: 1 2 3 4 5 6 7 8 9 10 11 12 13 14 15 16 17 18 19 20 21 22 23 24 25 26 27 28 29 30 31 32 33 34 35 36 37 38 39 40 41 42 43 44 45 46 47 48 49 50

000
ASUS43 KMPX 281301
RWRMN
WEATHER ROUNDUP FOR MINNESOTA
NATIONAL WEATHER SERVICE TWIN CITIES/CHANHASSEN MN
800 AM CDT SAT MAR 28 2015


NOTE: "FAIR" INDICATES FEW OR NO CLOUDS BELOW 12,000 FEET WITH NO
SIGNIFICANT WEATHER AND/OR OBSTRUCTIONS TO VISIBILITY. N/A MEANS
CURRENT SKY AND/OR WEATHER CONDITIONS ARE NOT AVAILABLE.

MNZ060>063-068>070-281400-
   Twin Cities Metro

CITY           SKY/WX    TMP DP  RH WIND       PRES   REMARKS
TWIN CITIES    PTCLDY    22  11  62 SE7       30.25R WCI  13
ST PAUL        CLEAR     23  16  74 SE7       30.27R WCI  15
CRYSTAL        CLEAR     21  14  74 CALM      30.23R
BLAINE         CLEAR     21  18  86 CALM      30.23R
LAKEVILLE      CLEAR     16  10  79 CALM      30.24R
EDEN PRAIRIE   CLEAR     22  11  62 SE3       30.23R
SOUTH ST PAUL  CLEAR     22  15  75 CALM      30.26R
LAKE ELMO      FAIR      19  16  86 CALM      30.26R
$$
MNZ001>005-007-008-013>017-022>024-027-028-281400-
   Northwest Minnesota

CITY           SKY/WX    TMP DP  RH WIND       PRES   REMARKS
BEMIDJI        PTCLDY    17  11  78 S3        30.13S
HALLOCK        PTCLDY    23  19  86 S12       30.07F WCI  12
ROSEAU         PTCLDY    23  18  80 S7        30.11R WCI  15
WARROAD        PTCLDY    23  18  80 S6        30.11S WCI  16
THIEF RVR FALL CLEAR     23  18  80 S7        30.11S WCI  15
CROOKSTON      PTCLDY    25  19  80 S14       30.12S WCI  13
FOSSTON        PTCLDY    21  12  68 SE6       30.13R WCI  14
DETROIT LAKES  CLEAR     21  18  86 SE5       30.13F WCI  15
MOORHEAD       PTCLDY    25  21  86 SE10      30.13F WCI  15
PARK RAPIDS    MOCLDY    20  12  71 SE7       30.13S WCI  11
MAHNOMEN       FAIR      19  13  78 SE6       30.12S WCI  11
$$
MNZ006-009>011-018-025>026-281400-
   North Central Minnesota

CITY           SKY/WX    TMP DP  RH WIND       PRES   REMARKS
BAUDETTE       PTCLDY    18  12  77 SE3       30.12R
FLAG ISLAND    PTCLDY    16  10  79 SE5       30.11R WCI   9
INTL FALLS     CLEAR     15   8  73 CALM      30.15R
WASKISH        MOCLDY    18  16  93 CALM      30.13S
BIG FORK       CLEAR     16   9  73 CALM      30.16S
LONGVILLE      CLEAR     12  10  92 CALM      30.17S
GRAND RAPIDS   CLEAR     16   7  67 SE7       30.17R WCI   6
ORR            CLEAR     16   9  73 CALM      30.14S
COOK           CLEAR     10   9  92 CALM      30.17S
WALKER         FAIR      15  10  81 CALM      30.14F
$$
MNZ012-019>021-037-281400-
   Northeast Minnesota

CITY           SKY/WX    TMP DP  RH WIND       PRES   REMARKS
DULUTH         SUNNY     20  14  77 VRB3      30.19R
ELY            SUNNY      9   5  85 CALM      30.18S
HIBBING        CLEAR     11   5  77 CALM      30.19R
EVELETH        CLEAR     12  10  92 CALM      30.20R
DULUTH HARBOR  SUNNY     19  14  79 CALM      30.26R
TWO HARBORS    SUNNY     18  12  79 CALM      30.20S
SILVER BAY     SUNNY     12   9  85 CALM      30.20S
GRAND MARAIS     N/A     18  11  74 CALM      30.25R
G MARAIS ARPRT SUNNY      3  -2  78 CALM      30.16S
$$
MNZ029>031-032-039>041-046>048-054>057-064-281400-
   West Central Minnesota

CITY           SKY/WX    TMP DP  RH WIND       PRES   REMARKS
FERGUS FALLS   CLEAR     25  18  74 SE9       30.17S WCI  15
WHEATON        MOCLDY    25  21  86 SE8       30.16S WCI  16
MORRIS         CLEAR     25  21  86 SE9       30.15R WCI  15
ALEXANDRIA     CLEAR     23  16  74 SE7       30.16R WCI  15
ELBOW LAKE     FAIR      22  18  85 SE7       30.15R WCI  14
WADENA         PTCLDY    19  14  79 SE3       30.15S
GLENWOOD       PTCLDY    23  19  86 SE6       30.17R WCI  16
APPLETON       CLOUDY    30  27  86 SE6       30.16R WCI  24
BENSON         MOCLDY    27  21  80 S8        30.17R WCI  18
ORTONVILLE     CLOUDY    28  25  86 SE10      30.14R WCI  19
MADISON        CLOUDY    30  27  86 SE10      30.15S WCI  21
WILLMAR        FAIR      25  19  80 SE8       30.19S WCI  16
$$
MNZ033>034-036-042>043-049>051-058-059-281400-
   Central Minnesota

CITY           SKY/WX    TMP DP  RH WIND       PRES   REMARKS
ST CLOUD       CLEAR     21  11  65 SE6       30.21R WCI  13
SAUK CENTRE    FAIR      23  16  74 SE6       30.18R WCI  16
PAYNESVILLE    CLEAR     21  15  76 E7        30.19R WCI  12
AITKIN         CLEAR     18  12  79 CALM      30.18S
PINE RIVER     CLEAR     18  14  86 CALM      30.19F
BRAINERD       CLEAR     15  12  88 CALM      30.19R
STAPLES        PTCLDY    18  12  79 SE3       30.16S
LONG PRAIRIE   FAIR      23  18  80 SE5       30.18R WCI  17
LITTLE FALLS   CLEAR     23  14  68 SE5       30.20R WCI  17
LITCHFIELD     CLEAR     23  19  86 SE5       30.20S WCI  17
MAPLE LAKE     CLEAR     22  18  85 CALM      30.22S
$$
MNZ037-044-045-052-053-281400-
   East Central Minnesota

CITY           SKY/WX    TMP DP  RH WIND       PRES   REMARKS
PRINCETON      FAIR      18  16  93 CALM      30.22R
MORA           CLEAR     18  14  86 CALM      30.24R
CAMBRIDGE      FAIR      19  12  73 CALM      30.22R
RUSH CITY      CLEAR     18  15  88 CALM      30.24R
MOOSE LAKE     CLEAR     14  10  85 CALM      30.21R
HINCKLEY       FAIR      18  14  86 CALM      30.23S
CLOQUET        CLEAR     16  12  86 CALM      30.20R
MCGREGOR       CLEAR     18  14  86 CALM      30.21R
$$
MNZ071>073-080-081-089-090-097-098-281400-
   Southwest Minnesota

CITY           SKY/WX    TMP DP  RH WIND       PRES   REMARKS
MONTEVIDEO     CLOUDY    30  27  86 S9        30.18S WCI  22
GRANITE FALLS  CLOUDY    30  26  85 SE7       30.19R WCI  23
CANBY          CLOUDY    29  27  92 SE8       30.16R WCI  21
MARSHALL       CLOUDY    28  23  80 SE12      30.16R WCI  18
REDWOOD FALLS  CLOUDY    29  25  85 SE9       30.18R WCI  20
OLIVIA         CLEAR     27  23  86 SE6       30.18S WCI  20
PIPESTONE      PTCLDY    25  25 100 SE6       30.12R WCI  18
WINDOM         CLOUDY    28  27  93 SE6       30.17R WCI  22
WORTHINGTON    CLOUDY    27  21  80 SE6       30.16R WCI  20
JACKSON        CLOUDY    30  27  86 SE8       30.17R WCI  23
TRACY          CLOUDY    30  28  92 SE6       30.16R WCI  24
SLAYTON        CLOUDY    28  26  94 CALM      30.15R
$$
MNZ065>067-074>077-082>085-091>093-281400-
   South Central Minnesota

CITY           SKY/WX    TMP DP  RH WIND       PRES   REMARKS
MANKATO        PTCLDY    23  16  74 SE8       30.22R WCI  14
NEW ULM        CLOUDY    27  19  74 SE5       30.20R WCI  21
ST JAMES       CLOUDY    28  21  74 SE9       30.21R WCI  20
FAIRMONT       CLOUDY    28  19  69 SE8       30.19R WCI  20
GLENCOE        CLOUDY    23  16  76 E5        30.22R WCI  16
FARIBAULT      CLEAR     18  12  79 CALM      30.23R
OWATONNA       CLEAR     18  12  79 E5        30.23R WCI  11
WASECA         CLEAR     21  16  79 SE5       30.23R WCI  15
ALBERT LEA     CLOUDY    27  18  69 S6        30.21R WCI  20
$$
MNZ078>079-086>088-094>096-281400-
   Southeast Minnesota

CITY           SKY/WX    TMP DP  RH WIND       PRES   REMARKS
ROCHESTER      SUNNY     15   9  76 S6        30.24R WCI   6
RED WING       SUNNY     19  16  86 CALM      30.26R
STANTON        FAIR      16  11  80 CALM      30.24R
DODGE CENTER   PTCLDY    16  10  79 CALM      30.23R
WINONA         SUNNY     21  18  86 CALM      30.29R
AUSTIN         FAIR      19  12  73 SE3       30.23R
PRESTON        FAIR      18   7  62 CALM      30.25R
$$
ABBREVIATIONS USED IN REMARKS
   TC - TEMPERATURES IN CELSIUS
  WCI - WIND CHILL INDEX
   HX - HEAT INDEX
  VSB - VISIBILITY
$$


USA.gov is the U.S. government's official web portal to all federal, state and local government web resources and services.